FW7345 Weather Reports


Display with metric or nautical units.
time (UTC)temp
F
wind
direction
speed
MPH
gust
MPH
rain 1hr
in
rain 24hr
in
rain mn
in
humidity
%
barometer
mb
20260502130116 55 4 3.0 6.0 0.00 0.57 0.00 99 1019.9
20260502123122 53 34 1.0 4.0 0.00 0.57 0.00 100 1019.4
20260502121604 52 11 1.0 4.0 0.00 0.57 0.00 100 1019.1
20260502120131 52 356 0.0 4.0 0.00 0.57 0.00 100 1018.8
20260502114557 52 348 0.0 8.0 0.00 0.57 0.00 100 1018.6
20260502113054 52 358 4.0 7.0 0.00 0.57 0.00 100 1018.5
20260502111554 52 36 2.0 4.0 0.00 0.57 0.00 100 1018.6
20260502110057 52 0 0.0 2.0 0.00 0.57 0.00 100 1018.3
20260502104555 52 0 0.0 2.0 0.00 0.58 0.00 100 1018.2
20260502103053 52 0 0.0 3.0 0.00 0.58 0.00 100 1018.0
20260502101559 52 0 0.0 1.0 0.00 0.58 0.00 100 1017.8
20260502070048 54 53 1.0 8.0 0.00 0.76 0.00 98 1016.3
20260502064551 54 63 3.0 9.0 0.00 0.93 0.00 98 1016.3
20260502063058 55 79 2.0 11.0 0.00 0.93 0.00 98 1016.3
20260502061551 55 72 5.0 11.0 0.00 0.93 0.00 98 1016.3
20260502060051 55 86 5.0 14.0 0.00 0.93 0.00 98 1016.1
20260502054550 55 68 5.0 14.0 0.00 0.94 0.00 98 1016.0
20260502053052 55 66 4.0 13.0 0.00 0.94 0.00 98 1016.0
20260502051552 55 68 7.0 14.0 0.00 0.94 0.00 98 1015.9
20260502050051 55 71 6.0 13.0 0.00 0.94 0.00 98 1015.9
20260502044556 55 70 3.0 10.0 0.00 1.42 0.94 98 1015.8
20260502043103 55 88 4.0 12.0 0.00 1.42 0.94 98 1015.6
20260502041555 55 75 6.0 13.0 0.00 1.42 0.94 98 1015.9
20260502040105 55 79 3.0 9.0 0.00 1.42 0.94 98 1015.9
20260502034602 55 87 5.0 9.0 0.00 1.42 0.94 98 1015.7
20260502033100 55 79 5.0 13.0 0.00 1.42 0.94 98 1015.7
20260502031557 55 68 5.0 14.0 0.00 1.42 0.94 98 1015.5
20260502030056 56 89 5.0 15.0 0.00 1.42 0.94 98 1015.1
20260502024609 56 68 7.0 13.0 0.00 1.42 0.94 98 1014.6
20260502023056 56 71 6.0 13.0 0.02 1.42 0.94 98 1014.1
20260502021604 57 77 5.0 13.0 0.05 1.42 0.94 98 1013.9
20260502020054 57 58 5.0 11.0 0.06 1.42 0.94 98 1013.6
20260502014553 58 59 4.0 9.0 0.08 1.42 0.94 98 1013.5
20260502013137 58 41 7.0 12.0 0.12 1.40 0.92 98 1013.2
20260502011555 58 50 3.0 13.0 0.10 1.37 0.89 98 1013.3
20260502010106 58 15 4.0 17.0 0.10 1.36 0.88 98 1013.3
20260502004604 58 97 8.0 15.0 0.11 1.34 0.86 98 1012.5
20260502003111 59 37 3.0 8.0 0.19 1.28 0.80 98 1013.4
20260502001556 59 60 6.0 13.0 0.30 1.27 0.79 98 1012.1
20260502000053 59 65 5.0 11.0 0.30 1.26 0.78 98 1012.2
20260501234555 59 76 6.0 11.0 0.31 1.23 0.75 98 1012.1
20260501233053 59 60 2.0 12.0 0.22 1.09 0.61 98 1013.1
20260501231549 59 72 8.0 15.0 0.10 0.97 0.49 98 1011.3
20260501230048 60 79 4.0 13.0 0.09 0.96 0.48 98 1010.0
20260501224551 60 68 5.0 16.0 0.05 0.92 0.44 98 1011.4
20260501223102 60 79 5.0 12.0 0.00 0.87 0.39 98 1010.3
20260501221559 61 93 8.0 15.0 0.00 0.87 0.39 98 1010.2
20260501220105 61 71 7.0 15.0 0.02 0.87 0.39 98 1009.9
20260501214553 61 138 6.0 14.0 0.02 0.87 0.39 98 1010.5
20260501213058 62 75 6.0 13.0 0.02 0.87 0.39 98 1010.6
20260501211603 62 74 7.0 17.0 0.02 0.87 0.39 98 1011.1
20260501210059 0 0.0 0.0 0.00 0.85 0.37 1010.5
20260501204555 0 0.0 0.0 0.00 0.85 0.37 1010.1
20260501203053 0 0.0 0.0 0.00 0.85 0.37 1010.2
20260501201559 0 0.0 0.0 0.00 0.85 0.37 1009.1
20260501200056 0 0.0 0.0 0.00 0.85 0.37 1009.7
20260501194557 0 0.0 0.0 0.00 0.85 0.37 1009.3
20260501193103 0 0.0 0.0 0.00 0.85 0.37 1009.2
20260501191551 0 0.0 0.0 0.00 0.85 0.37 1009.8
20260501190128 0 0.0 0.0 0.00 0.85 0.37 1010.1
20260501184607 0 0.0 0.0 0.00 0.85 0.37 1009.6
20260501183050 0 0.0 0.0 0.00 0.85 0.37 1009.8
20260501181554 0 0.0 0.0 0.00 0.85 0.37 1008.5
20260501180110 0 0.0 0.0 0.00 0.85 0.37 1009.0
20260501174551 0 0.0 0.0 0.00 0.85 0.37 1009.3
20260501173052 0 0.0 0.0 0.00 0.85 0.37 1009.9
20260501171552 0 0.0 0.0 0.00 0.85 0.37 1011.0
20260501170056 0 0.0 0.0 0.00 0.85 0.37 1010.9
20260501164551 0 0.0 0.0 0.00 0.85 0.37 1011.0
20260501163058 0 0.0 0.0 0.00 0.85 0.37 1011.7
20260501161551 0 0.0 0.0 0.00 0.85 0.37 1011.8
20260501160057 0 0.0 0.0 0.00 0.85 0.37 1012.3
20260501154606 0 0.0 0.0 0.00 0.85 0.37 1012.9
20260501153052 0 0.0 0.0 0.00 0.85 0.37 1011.8
20260501151606 0 0.0 0.0 0.00 0.85 0.37 1011.0
20260501150055 0 0.0 0.0 0.00 0.85 0.37 1011.4